DW8923 Weather Reports


time (UTC)temp
F
wind
direction
speed
knots
gust
knots
rain 1hr
in
rain 24hr
in
rain mn
in
humidity
%
barometer
mb
20260906050039 83 144 0.9 4.3 0.00 0.00 0.00 73 1011.2
20260906044536 83 119 0.9 3.5 0.00 0.00 0.00 72 1011.4
20260906043033 83 121 1.7 7.0 0.00 0.00 0.00 71 1011.3
20260906041532 83 106 1.7 6.1 0.00 0.00 0.00 70 1011.2
20260906040044 84 110 0.9 4.3 0.00 0.00 0.00 68 1011.1
20260906034545 84 155 2.6 8.7 0.00 0.00 0.00 67 1011.1
20260906033031 85 95 3.5 7.0 0.00 0.00 0.00 66 1011.1
20260906031558 85 75 1.7 6.1 0.00 0.00 0.00 65 1011.0
20260906030029 86 101 1.7 5.2 0.00 0.00 0.00 62 1010.8
20260906024550 87 78 1.7 5.2 0.00 0.00 0.00 59 1010.5
20260906023027 87 116 1.7 7.8 0.00 0.00 0.00 57 1010.1
20260906021526 88 44 2.6 7.0 0.00 0.00 0.00 56 1009.8
20260906020028 88 148 5.2 12.2 0.00 0.00 0.00 55 1009.5
20260906014526 89 130 1.7 7.0 0.00 0.00 0.00 55 1009.2
20260906013024 90 86 3.5 8.7 0.00 0.00 0.00 53 1009.2
20260906011524 90 77 2.6 8.7 0.00 0.00 0.00 53 1008.9
20260906010040 91 103 2.6 7.0 0.00 0.00 0.00 52 1008.9
20260906004523 92 107 2.6 7.8 0.00 0.00 0.00 51 1008.9
20260906003022 93 115 3.5 8.7 0.00 0.00 0.00 50 1008.9
20260906001529 93 40 2.6 7.8 0.00 0.00 0.00 49 1008.8
20260906000022 94 140 2.6 8.7 0.00 0.00 0.00 47 1008.8
20260905234520 96 58 2.6 6.1 0.00 0.00 0.00 42 1008.6
20260905233019 96 112 4.3 7.8 0.00 0.00 0.00 39 1008.5
20260905231517 96 346 0.9 3.5 0.00 0.00 0.00 40 1008.5
20260905230030 97 141 1.7 7.8 0.00 0.00 0.00 39 1008.5
20260905224519 98 146 2.6 7.8 0.00 0.00 0.00 39 1008.5
20260905223017 98 315 0.0 6.1 0.00 0.00 0.00 39 1008.5
20260905221513 97 119 0.9 5.2 0.00 0.00 0.00 39 1008.6
20260905220012 97 80 0.9 5.2 0.00 0.00 0.00 41 1008.6
20260905214511 95 239 0.0 6.1 0.00 0.00 0.00 43 1008.7
20260905213009 95 198 0.9 5.2 0.00 0.00 0.00 42 1008.9
20260905211518 96 136 0.0 3.5 0.00 0.00 0.00 40 1009.1
20260905210005 98 91 1.7 7.0 0.00 0.00 0.00 39 1009.3
20260905204504 98 22 2.6 7.8 0.00 0.00 0.00 40 1009.4
20260905203118 97 206 1.7 6.1 0.00 0.00 0.00 41 1009.7
20260905201605 96 25 0.0 4.3 0.00 0.00 0.00 43 1009.9
20260905200058 95 121 0.0 6.1 0.00 0.00 0.00 43 1010.1
20260905194547 96 47 0.0 5.2 0.00 0.00 0.00 44 1010.3
20260905193043 97 121 2.6 6.1 0.00 0.00 0.00 42 1010.6
20260905191540 96 173 1.7 4.3 0.00 0.00 0.00 44 1010.9
20260905190037 96 186 1.7 7.8 0.00 0.00 0.00 45 1011.1
20260905184534 95 157 3.5 11.3 0.00 0.00 0.00 46 1011.4
20260905183036 95 223 0.9 6.1 0.00 0.00 0.00 47 1011.7
20260905181533 95 134 4.3 7.8 0.00 0.00 0.00 46 1011.9
20260905180030 95 347 0.9 6.1 0.00 0.00 0.00 48 1012.1
20260905174529 94 189 1.7 7.8 0.00 0.00 0.00 48 1012.4
20260905173049 94 148 2.6 6.1 0.00 0.00 0.00 50 1012.6
20260905171524 94 124 3.5 9.6 0.00 0.00 0.00 51 1012.7
20260905170019 93 80 0.9 7.8 0.00 0.00 0.00 53 1012.9
20260905164516 92 102 2.6 8.7 0.00 0.00 0.00 55 1013.0
20260905163014 91 155 3.5 8.7 0.00 0.00 0.00 55 1013.0
20260905161509 90 136 1.7 4.3 0.00 0.00 0.00 61 1013.1
20260905160006 89 173 1.7 4.3 0.00 0.00 0.00 63 1012.9
20260905154504 89 176 2.6 6.1 0.00 0.00 0.00 63 1012.9
20260905153100 88 169 2.6 6.1 0.00 0.00 0.00 67 1012.9
20260905151601 87 198 1.7 6.1 0.00 0.00 0.00 68 1012.9
20260905150053 86 135 0.9 5.2 0.00 0.00 0.00 73 1013.0
20260905144552 84 188 1.7 5.2 0.00 0.01 0.00 76 1013.0
20260905143049 82 123 2.6 4.3 0.00 0.01 0.00 82 1013.0
20260905141541 81 126 1.7 4.3 0.00 0.01 0.00 88 1013.0
20260905140038 79 142 2.6 6.1 0.00 0.01 0.00 90 1012.9
20260905134550 78 157 0.9 2.6 0.00 0.02 0.00 93 1012.8
20260905133035 77 173 1.7 3.5 0.00 0.02 0.00 94 1012.8
20260905131532 76 270 0.0 0.9 0.00 0.02 0.00 94 1012.6
20260905130030 75 270 0.0 0.0 0.00 0.02 0.00 93 1012.4
20260905124537 74 270 0.0 0.0 0.00 0.03 0.00 92 1012.3
20260905123028 74 270 0.0 0.0 0.00 0.03 0.00 91 1012.1
20260905121529 74 270 0.0 0.0 0.00 0.03 0.00 90 1011.9
20260905120026 74 270 0.0 0.0 0.00 0.03 0.00 90 1011.7
20260905114525 75 270 0.0 0.0 0.00 0.03 0.00 90 1011.8
20260905113024 75 270 0.0 0.0 0.00 0.03 0.00 90 1011.6
20260905111522 75 270 0.0 0.0 0.00 0.03 0.00 89 1011.4
20260905110020 75 270 0.0 0.0 0.00 0.03 0.00 88 1011.4
20260905104520 76 270 0.0 0.0 0.00 0.03 0.00 88 1011.3
20260905103016 76 270 0.0 0.0 0.00 0.03 0.00 87 1011.3
20260905101523 77 270 0.0 0.0 0.00 0.03 0.00 88 1011.4
20260905100013 77 270 0.0 0.0 0.00 0.03 0.00 87 1011.5
20260905094511 78 270 0.0 0.0 0.00 0.03 0.00 88 1011.4
20260905093010 78 270 0.0 1.7 0.00 0.03 0.00 88 1011.3
20260905091514 78 172 0.0 2.6 0.00 0.03 0.00 87 1011.3
20260905090011 78 131 0.9 4.3 0.00 0.03 0.00 87 1011.3
20260905084506 78 169 0.9 2.6 0.00 0.03 0.00 87 1011.4
20260905083005 78 181 0.9 3.5 0.00 0.03 0.00 86 1011.4
20260905081505 78 123 1.7 5.2 0.00 0.03 0.00 86 1011.4
20260905080003 79 216 1.7 4.3 0.00 0.03 0.00 85 1011.5
20260905074501 79 173 0.0 5.2 0.00 0.03 0.00 84 1011.5
20260905073100 79 127 0.9 3.5 0.00 0.03 0.00 83 1011.7
20260905071558 79 140 0.9 2.6 0.00 0.03 0.00 82 1011.7
20260905070111 79 180 0.0 5.2 0.00 0.03 0.00 81 1011.8
20260905064555 80 171 0.9 4.3 0.00 0.03 0.00 81 1011.9
20260905063058 80 157 1.7 5.2 0.00 0.03 0.00 80 1012.0
20260905061552 80 155 0.9 6.1 0.00 0.03 0.00 79 1012.0
20260905060050 80 97 1.7 5.2 0.00 0.03 0.00 78 1012.1
20260905054554 81 164 0.9 3.5 0.00 0.03 0.00 77 1012.1
20260905053046 81 150 1.7 6.1 0.00 0.03 0.00 76 1012.0
20260905051544 81 167 1.7 5.2 0.00 0.03 0.00 76 1012.1